Tracking 19709 objects as of 20-Jun-2019
HD Live streaming from Space Station
objects crossing your sky now

FLOCK 3P 71

Track FLOCK 3P 71 now!
10-day predictions
FLOCK 3P 71 is classified as:


NORAD ID: 42024
Int'l Code: 2017-008CE
Perigee: 487.1 km
Apogee: 499.7 km
Inclination: 97.4 °
Period: 94.3 minutes
Semi major axis: 6864 km
RCS: Unknown
Launch date: February 15, 2017
Source: United States (US)
Launch site: SRIHARIKOTA (SRI)
aabbcc
Your satellite tracking list
Your tracking list is empty




NASA's NSSDC Master Catalog

Two Line Element Set (TLE):
1 42024U 17008CE  19171.18828706  .00001455  00000-0  58507-4 0  9991
2 42024  97.4068 238.7370 0009187 132.9881 227.2129 15.26503697129084
Source of the keplerian elements: AFSPC